Theta_e
314 315 316 317 318 320 322 322 318 311 316 318 316 316 314 316 316 317 311 310 310 310 311 311 315 313 313 317 316 318 323 325 324 322 321 320 320 318 318 318 318 320 319 321 333
314 315 316 316 318 319 319 319 317 312 318 316 314 314 312 312 311 312 322 311 309 309 311 313 313 313 315 317 317 319 322 324 323 321 320 320 320 318 318 318 318 319 319 323 333
314 315 316 316 317 317 315 312 310 312 314 314 313 313 313 310 309 311 311 312 311 309 310 314 313 315 316 317 318 319 323 321 320 318 319 320 319 319 319 319 319 318 319 327 333
314 315 316 316 316 315 311 310 310 310 311 310 314 313 312 309 314 313 312 311 311 310 312 314 313 315 316 317 317 319 317 319 317 315 317 319 319 318 318 318 317 318 319 327 330
314 315 315 316 315 314 310 310 310 309 309 310 312 314 312 310 311 311 311 311 311 310 312 313 313 314 316 316 315 318 315 315 315 315 317 316 318 318 318 318 316 315 317 324 328
314 315 315 315 316 316 310 309 309 309 309 309 309 309 309 312 312 310 310 310 309 312 312 312 313 314 315 315 316 316 315 314 314 314 314 317 317 315 317 316 315 315 316 319 324
315 314 315 315 315 315 310 308 308 308 308 308 308 307 311 311 309 309 309 311 310 312 311 311 313 314 314 315 312 315 315 315 314 314 315 314 315 316 317 313 313 313 314 316 319
315 314 314 315 316 315 309 308 308 308 308 307 307 307 309 310 309 309 311 313 313 311 311 311 312 314 315 313 313 315 316 316 315 314 314 314 319 319 315 314 314 314 314 314 315
315 314 314 314 315 312 308 308 308 307 307 307 307 309 309 307 308 310 312 313 312 310 311 311 312 313 313 315 314 315 314 316 313 314 315 315 317 316 312 313 314 314 314 313 313
314 314 313 315 315 309 308 307 307 307 307 307 309 310 309 310 309 310 312 312 311 311 312 312 314 314 315 315 315 314 315 315 315 314 314 316 315 315 314 314 315 315 314 314 314
314 313 313 314 313 308 307 307 311 312 311 309 309 309 309 309 311 310 311 311 312 313 313 314 314 314 314 315 315 315 315 314 314 313 315 315 315 316 315 314 314 315 316 315 315
314 313 312 313 312 308 307 309 309 309 311 307 308 308 309 311 311 310 311 312 312 313 314 314 313 314 313 312 313 315 314 314 313 312 314 315 315 315 315 315 315 315 316 316 316
314 312 313 313 311 309 311 310 309 309 309 309 309 310 310 311 312 311 311 312 313 313 313 312 313 312 313 311 312 313 313 314 314 312 312 313 314 315 315 314 315 314 315 315 315
313 312 312 312 311 311 311 309 307 308 309 309 309 309 310 310 311 311 311 311 311 313 313 312 308 311 312 312 312 312 312 313 313 314 313 312 312 316 315 314 312 312 312 312 312
313 312 312 312 311 311 309 307 307 307 310 310 309 308 311 310 310 311 310 310 312 312 312 311 310 311 313 312 312 312 312 312 313 313 314 313 312 313 312 313 313 313 313 313 313
313 312 312 310 310 309 308 307 308 309 311 310 309 310 311 309 310 310 311 310 310 311 311 311 308 311 312 309 311 310 311 312 312 313 312 312 313 313 314 313 312 313 314 314 312
312 312 312 310 309 308 307 310 310 317 310 312 309 310 310 310 311 311 311 311 311 311 311 311 310 310 309 310 310 312 312 313 313 313 313 309 312 313 314 310 312 313 315 313 312
313 312 312 311 309 307 308 313 316 310 310 311 310 310 310 310 311 311 312 311 312 311 312 311 311 311 310 312 312 312 313 315 321 315 314 308 312 313 312 312 309 309 313 312 312
313 312 311 310 309 308 312 313 315 311 312 311 310 310 310 310 311 312 312 311 312 310 311 311 311 309 309 309 311 312 312 311 312 308 316 313 313 313 311 311 312 311 312 313 312
313 311 311 310 308 311 314 314 311 311 312 311 311 310 310 310 311 311 312 312 311 310 308 310 312 310 308 309 309 311 311 311 312 321 318 313 313 313 313 311 312 312 313 312 310
310 306 306 309 307 310 312 313 311 310 311 311 312 310 310 310 310 311 312 311 312 310 308 310 312 310 309 310 311 310 310 311 311 315 324 317 313 312 313 314 313 313 313 311 310
303 304 305 310 309 308 310 310 310 311 313 313 312 311 311 311 310 311 311 310 309 308 309 310 313 313 311 308 308 310 311 311 312 313 311 313 314 310 310 313 314 314 312 311 310
303 301 302 307 307 307 307 309 310 312 314 315 314 312 311 311 311 310 311 310 307 309 310 309 316 316 311 310 310 310 310 312 312 314 318 317 313 311 310 311 314 313 310 309 309
304 305 300 301 302 307 309 310 311 310 312 312 314 314 311 311 312 311 311 311 311 308 308 309 315 314 313 311 312 311 311 310 311 317 312 314 313 312 312 311 313 312 310 310 309
299 302 302 306 304 306 308 309 310 312 310 311 313 315 314 314 312 312 312 312 312 310 311 311 314 312 312 311 313 314 312 311 310 311 312 312 312 312 313 312 313 313 311 310 309
300 301 300 302 304 305 305 307 310 308 311 312 312 313 314 314 313 314 312 313 312 312 311 310 313 311 311 311 311 313 313 312 311 311 311 311 311 312 311 313 313 312 310 309 308
297 299 301 303 304 306 307 307 307 308 307 309 310 312 312 312 310 310 311 312 313 313 312 312 311 313 319 312 312 312 311 312 311 311 311 311 312 312 311 312 313 312 311 310 308
Wind_Speed
29 29 28 29 29 31 32 29 26 23 19 18 19 23 22 21 17 23 23 11 8 13 7 12 11 11 11 7 9 4 6 10 10 10 8 12 9 6 5 5 6 6 2 7 14
29 31 27 27 29 30 33 31 27 26 23 23 23 26 20 10 11 17 32 19 2 8 10 12 13 13 9 7 6 8 9 12 6 8 10 16 12 11 8 9 7 7 4 10 15
29 31 29 30 29 29 31 31 30 30 27 25 26 22 19 12 10 16 20 18 16 7 11 13 10 11 11 8 9 7 10 7 7 6 6 15 10 7 7 8 7 12 12 12 16
30 31 30 29 29 29 30 31 32 32 29 26 32 23 19 14 7 16 27 14 15 8 14 15 12 11 9 7 7 8 1 2 7 6 7 12 9 7 10 6 5 6 10 14 16
32 31 31 30 28 29 32 31 31 30 29 27 30 29 19 15 15 16 20 18 19 20 20 19 15 13 12 7 6 3 6 3 7 7 6 8 8 2 9 8 4 5 11 13 14
30 33 31 30 29 28 31 30 30 29 27 25 26 24 19 20 18 11 11 15 24 24 23 19 16 15 7 6 11 5 8 9 6 7 4 7 5 2 7 7 8 8 8 11 15
32 34 32 30 28 28 30 30 29 27 25 24 22 22 15 19 9 15 15 17 22 22 17 21 11 16 9 8 5 12 8 6 7 5 1 2 6 11 7 5 5 9 12 12 13
34 34 32 31 28 28 30 29 26 24 22 22 23 20 10 21 16 13 17 20 20 19 18 19 14 13 6 9 7 8 7 7 7 7 2 2 12 13 5 8 11 11 8 13 14
35 34 33 32 29 29 29 26 24 22 21 20 20 13 9 11 20 14 16 19 20 18 15 15 14 5 8 10 6 8 10 14 6 7 3 8 9 6 3 5 8 12 15 13 13
35 35 31 33 30 30 27 25 23 21 19 17 9 8 11 9 19 18 17 17 13 18 12 9 6 8 7 10 14 12 13 5 10 7 8 9 13 5 6 6 8 8 11 14 14
35 33 32 33 31 33 33 31 18 10 18 9 11 6 7 14 17 16 19 20 13 18 11 13 10 15 18 17 5 14 14 11 9 3 6 13 15 14 15 11 11 13 13 13 14
34 32 35 33 33 36 36 21 26 10 12 7 5 10 10 13 7 18 22 12 14 15 12 7 15 13 5 7 6 10 15 9 5 3 4 6 13 13 17 19 18 18 17 16 15
33 30 36 33 34 36 29 23 23 22 7 7 8 9 9 13 6 19 23 9 15 17 15 12 7 10 8 6 9 6 12 10 1 5 2 6 11 16 14 19 17 16 16 15 12
34 34 37 35 33 32 28 23 23 19 6 9 8 9 11 10 4 17 20 8 3 15 12 8 4 10 12 13 7 7 3 7 9 7 6 3 5 4 9 11 11 15 16 15 11
33 38 38 39 20 31 29 21 24 12 8 16 10 11 15 7 13 11 15 4 10 9 7 5 8 12 13 11 12 3 6 6 5 3 4 6 5 5 2 9 11 12 9 8 7
36 38 38 36 23 33 22 23 18 7 8 8 10 12 11 5 3 8 9 4 6 5 3 4 0 3 3 6 2 14 9 8 4 2 5 10 8 6 7 3 4 9 8 8 6
37 36 38 39 18 33 27 25 7 9 11 9 9 11 20 8 6 8 16 12 10 8 10 4 4 2 4 9 6 6 14 4 5 5 6 3 3 12 2 3 4 9 8 8 8
36 34 36 36 21 35 32 9 8 12 10 5 9 14 14 11 5 5 13 14 14 8 13 11 7 10 8 2 7 13 15 5 6 6 3 3 7 5 1 4 7 6 6 8 9
35 38 38 36 23 34 25 12 10 9 12 10 16 17 12 13 6 10 16 17 16 13 8 12 8 2 1 1 5 7 6 3 5 2 0 7 7 8 8 6 7 10 9 8 8
45 36 32 36 24 31 10 12 8 1 14 19 10 15 20 18 11 16 17 14 11 13 2 3 4 1 3 2 1 5 9 3 3 4 5 5 7 9 6 11 10 11 13 10 8
29 12 8 34 27 16 14 9 5 5 7 10 9 10 18 13 12 12 13 5 13 10 4 6 3 2 3 9 13 5 5 5 3 3 4 3 5 4 4 10 13 14 14 12 10
9 3 12 31 9 5 12 16 2 8 5 3 3 5 14 16 14 12 14 4 8 15 14 2 4 4 8 3 3 5 11 12 5 6 6 2 6 2 4 1 14 15 14 11 11
5 5 9 18 7 8 2 14 5 6 7 5 3 1 3 12 10 13 10 2 3 11 13 9 4 4 2 2 2 7 10 15 13 3 6 5 8 2 4 5 10 16 15 14 13
6 3 4 3 6 6 6 6 6 1 4 2 4 3 8 9 3 11 11 3 3 4 2 12 3 10 14 4 9 8 12 11 11 4 15 11 20 5 7 10 13 14 15 16 16
4 3 3 4 4 6 6 7 5 6 0 3 3 2 8 4 6 5 7 6 4 2 2 6 6 6 13 4 2 4 12 14 17 23 12 23 21 16 9 12 20 18 15 17 19
4 4 4 2 15 6 5 5 12 2 4 5 4 5 3 9 8 7 9 6 4 5 6 4 2 2 2 3 2 1 7 18 22 24 20 25 20 9 3 16 16 21 21 24 22
7 11 4 7 6 8 5 6 6 9 1 3 11 5 4 5 8 10 8 10 6 7 6 7 6 3 2 3 5 4 22 13 16 20 19 21 29 7 7 12 17 23 28 29 25
Wind_Direction
207 203 202 199 195 194 192 198 195 193 194 191 181 170 170 179 200 202 179 173 170 243 205 201 200 202 189 211 212 230 221 199 191 195 141 160 176 181 187 155 169 169 64 128 166
203 200 199 197 194 195 191 195 193 186 179 178 175 174 170 178 191 208 209 161 182 267 225 201 197 187 189 208 213 224 218 206 176 182 156 171 197 175 184 171 178 175 178 146 163
203 197 195 193 197 193 192 195 192 187 178 182 179 169 177 192 231 227 179 183 174 249 216 210 211 187 203 208 196 190 214 113 162 144 153 169 184 184 202 189 188 195 186 169 170
204 195 194 193 197 191 193 193 192 191 191 189 191 181 178 196 207 204 180 182 182 210 209 208 196 193 204 196 201 194 265 145 146 143 149 171 167 199 205 82 117 169 181 178 187
200 196 194 191 193 190 192 191 193 191 192 189 188 194 196 216 229 181 184 196 191 213 205 196 198 205 208 192 172 229 135 102 132 136 158 153 179 204 220 206 195 175 177 190 203
200 196 195 193 189 188 190 189 191 191 193 193 190 195 194 220 219 215 204 203 195 200 198 201 196 200 198 212 205 145 149 128 132 138 144 189 181 205 200 194 212 221 206 203 211
197 197 193 189 188 185 187 189 189 190 192 190 194 191 218 209 234 230 222 206 199 202 201 199 204 183 164 157 140 145 129 147 160 155 95 272 218 226 197 164 194 223 227 218 219
198 197 194 185 184 184 183 186 184 186 188 186 188 190 226 225 231 214 208 195 193 199 208 197 198 182 168 134 125 177 163 184 156 174 169 187 246 211 200 229 229 233 230 221 225
196 197 195 183 183 182 180 177 175 180 178 180 178 179 224 221 214 207 197 187 187 190 201 196 165 161 145 173 153 202 197 209 158 201 159 206 254 136 208 228 245 236 231 225 231
197 197 191 182 180 176 171 166 165 169 165 166 181 188 234 210 200 191 185 171 164 171 159 173 189 184 201 192 197 187 213 204 207 181 217 207 244 192 203 214 247 241 227 221 226
192 197 189 182 177 169 164 153 151 166 179 179 189 212 157 188 179 179 178 167 156 176 180 190 198 200 195 203 247 197 203 201 189 126 217 232 249 246 241 224 242 242 231 219 219
191 194 183 180 174 170 169 170 180 177 175 223 195 216 178 155 153 173 170 162 175 187 171 172 215 199 147 134 152 180 193 186 130 135 207 231 259 255 248 242 234 238 237 227 217
188 186 180 178 173 172 181 186 182 157 162 190 179 194 179 170 156 172 172 161 188 180 198 196 193 147 167 162 177 193 194 168 194 155 232 283 266 246 237 244 237 232 236 241 235
183 183 179 176 177 180 191 187 174 169 184 173 194 200 176 160 153 171 174 155 175 190 198 231 141 179 184 189 169 185 95 138 134 176 230 265 262 177 225 225 213 229 223 228 225
182 182 180 178 178 182 190 179 179 195 213 162 158 173 163 169 137 178 174 146 164 148 189 162 155 180 179 193 193 155 114 114 135 195 292 185 263 237 146 250 222 196 181 193 196
182 182 179 175 174 181 180 172 172 213 224 155 147 170 148 154 108 135 165 137 109 123 138 98 358 198 157 72 228 137 122 95 114 191 246 231 223 251 209 227 121 151 172 175 169
179 183 181 177 171 177 173 168 174 216 138 167 181 174 173 155 126 190 181 174 165 162 182 129 148 116 170 101 136 193 162 144 194 201 245 56 210 246 183 157 220 163 168 159 157
176 178 182 186 169 171 175 187 205 194 189 119 159 164 175 152 159 161 181 187 221 241 172 182 193 181 168 202 181 194 191 178 190 195 191 88 230 245 23 83 170 168 168 161 156
168 176 184 188 173 176 171 195 198 187 150 143 150 164 172 179 157 166 196 199 193 207 183 193 173 63 82 52 158 170 202 71 109 43 99 203 247 273 177 178 198 181 180 174 162
164 162 180 189 177 176 199 203 183 37 142 157 165 188 183 182 169 192 186 204 185 188 257 211 118 21 100 169 165 214 146 152 232 178 225 224 258 244 206 217 191 184 186 174 168
160 127 131 182 178 179 207 198 154 165 174 188 167 174 190 179 192 195 185 144 189 174 169 163 110 107 167 211 181 159 180 214 241 201 208 243 232 32 288 188 190 187 179 173 170
102 108 152 158 172 194 199 201 114 177 181 156 156 120 185 180 188 192 193 229 193 155 190 168 101 154 196 47 357 282 212 186 190 202 238 35 262 93 52 164 179 174 166 163 171
89 95 170 168 170 189 177 208 219 186 195 170 145 146 146 171 185 199 184 72 152 175 180 174 171 115 127 213 210 215 205 217 221 49 197 199 252 139 129 161 175 172 171 172 173
122 115 71 107 108 144 147 162 167 345 146 123 129 133 142 160 64 178 162 149 160 193 72 179 134 205 209 198 145 208 209 205 218 201 230 223 248 160 186 185 181 184 184 180 182
69 94 139 154 169 136 127 159 141 160 255 189 132 260 192 115 160 154 143 134 127 149 134 186 203 220 244 56 62 191 189 190 207 225 219 239 245 240 206 198 200 191 189 190 192
113 137 103 60 138 119 137 174 174 141 155 175 197 142 86 166 192 185 158 166 160 164 169 156 151 116 61 83 90 7 230 202 212 229 236 250 258 248 293 183 193 192 193 202 201
116 130 107 148 147 158 178 155 158 143 72 173 219 173 203 92 72 80 85 102 131 167 160 158 143 127 168 112 98 284 226 208 221 230 228 238 246 238 193 201 203 202 209 208 201